JBU1484 KRDU-KBOS

Flight info

Callsign JBU1484
Flight time N/A
Altitude 35000
Route BEXGO5 BOUSY GEARS BBOBO Q22 RBV Q419 JFK ROBUC3
Aircraft A320/M-SDE3FGHIRWY/LB1

Departure

Time N/A
Airport Raleigh-Durham International Airport (KRDU)

Arrival

Time 2026-05-07 01:59
Airport Boston Logan International Airport (KBOS)
Time Latitude Longitude Altitude Speed Heading
2026-05-07 01:21 41.02564 -73.19329 24502 ft 506 kts 40°
2026-05-07 01:21 41.04930 -73.15808 24275 ft 504 kts 40°
2026-05-07 01:21 41.07228 -73.12388 24049 ft 503 kts 40°
2026-05-07 01:22 41.09548 -73.08934 23824 ft 502 kts 40°
2026-05-07 01:22 41.11862 -73.05479 23606 ft 500 kts 40°
2026-05-07 01:22 41.14168 -73.02029 23375 ft 498 kts 40°
2026-05-07 01:22 41.16463 -72.98592 23105 ft 496 kts 41°
2026-05-07 01:23 41.18748 -72.95172 22846 ft 494 kts 41°
2026-05-07 01:23 41.20896 -72.91598 22848 ft 499 kts 50°
2026-05-07 01:23 41.22671 -72.87613 22850 ft 505 kts 58°
2026-05-07 01:23 41.24269 -72.83451 22850 ft 505 kts 58°
2026-05-07 01:24 41.25858 -72.79286 22847 ft 505 kts 59°
2026-05-07 01:24 41.27441 -72.75117 22851 ft 505 kts 59°
2026-05-07 01:24 41.29025 -72.70947 22850 ft 505 kts 59°
2026-05-07 01:24 41.30608 -72.66778 22858 ft 505 kts 59°
2026-05-07 01:25 41.32193 -72.62607 22858 ft 505 kts 59°
2026-05-07 01:25 41.33778 -72.58443 22858 ft 504 kts 59°
2026-05-07 01:25 41.35363 -72.54276 22860 ft 504 kts 59°
2026-05-07 01:25 41.36947 -72.50112 22862 ft 505 kts 59°
2026-05-07 01:26 41.38530 -72.45940 22858 ft 505 kts 59°
2026-05-07 01:26 41.40106 -72.41774 22859 ft 505 kts 59°
2026-05-07 01:26 41.41685 -72.37594 22858 ft 505 kts 59°
2026-05-07 01:26 41.43257 -72.33416 22855 ft 505 kts 59°
2026-05-07 01:27 41.44830 -72.29227 22853 ft 505 kts 59°
2026-05-07 01:27 41.46403 -72.25045 22857 ft 505 kts 59°
2026-05-07 01:27 41.47972 -72.20858 22791 ft 505 kts 59°
2026-05-07 01:27 41.49526 -72.16674 22307 ft 501 kts 60°
2026-05-07 01:28 41.51046 -72.12521 21847 ft 496 kts 60°
2026-05-07 01:28 41.52541 -72.08407 21375 ft 490 kts 61°
2026-05-07 01:28 41.54019 -72.04338 20925 ft 485 kts 61°
2026-05-07 01:28 41.55479 -72.00309 20475 ft 480 kts 62°
2026-05-07 01:29 41.56853 -71.96274 20029 ft 475 kts 65°
2026-05-07 01:29 41.58113 -71.92220 19604 ft 471 kts 67°
2026-05-07 01:29 41.59295 -71.88160 19180 ft 466 kts 69°
2026-05-07 01:29 41.60436 -71.84126 18759 ft 462 kts 69°
2026-05-07 01:30 41.61546 -71.80185 18350 ft 457 kts 69°
2026-05-07 01:30 41.62674 -71.76243 17891 ft 451 kts 69°
2026-05-07 01:30 41.63802 -71.72367 17587 ft 441 kts 69°
2026-05-07 01:30 41.64912 -71.68608 17418 ft 428 kts 69°
2026-05-07 01:31 41.65992 -71.64958 17238 ft 416 kts 69°
2026-05-07 01:31 41.67039 -71.61411 17079 ft 404 kts 69°
2026-05-07 01:31 41.68053 -71.57961 16947 ft 394 kts 69°
2026-05-07 01:31 41.69053 -71.54560 16820 ft 392 kts 69°
2026-05-07 01:32 41.70048 -71.51165 16536 ft 391 kts 69°
2026-05-07 01:32 41.71031 -71.47790 16210 ft 388 kts 69°
2026-05-07 01:32 41.72005 -71.44430 15885 ft 386 kts 68°
2026-05-07 01:32 41.73198 -71.41230 15562 ft 383 kts 58°
2026-05-07 01:33 41.74532 -71.38146 15210 ft 382 kts 59°
2026-05-07 01:33 41.75851 -71.35070 14848 ft 380 kts 59°
2026-05-07 01:33 41.77157 -71.32004 14491 ft 378 kts 59°
2026-05-07 01:33 41.78457 -71.28956 14137 ft 376 kts 59°
2026-05-07 01:34 41.79752 -71.25925 13784 ft 374 kts 59°
2026-05-07 01:34 41.81040 -71.22909 13410 ft 372 kts 59°
2026-05-07 01:34 41.82317 -71.19909 13004 ft 369 kts 59°
2026-05-07 01:34 41.83584 -71.16921 12619 ft 367 kts 59°
2026-05-07 01:35 41.84825 -71.13984 12235 ft 356 kts 59°
2026-05-07 01:35 41.86035 -71.11126 11849 ft 350 kts 59°
2026-05-07 01:35 41.87246 -71.08301 11529 ft 348 kts 58°
2026-05-07 01:35 41.88454 -71.05509 11321 ft 345 kts 58°
2026-05-07 01:36 41.89659 -71.02734 11135 ft 343 kts 58°
2026-05-07 01:36 41.90860 -70.99972 10937 ft 342 kts 58°
2026-05-07 01:36 41.92054 -70.97217 10743 ft 341 kts 58°
2026-05-07 01:36 41.93238 -70.94473 10548 ft 339 kts 58°
2026-05-07 01:37 41.94418 -70.91729 10357 ft 338 kts 58°
2026-05-07 01:37 41.95593 -70.88995 10171 ft 337 kts 58°
2026-05-07 01:37 41.96760 -70.86269 9971 ft 336 kts 58°
2026-05-07 01:37 41.97923 -70.83547 9781 ft 335 kts 58°
2026-05-07 01:38 41.99082 -70.80838 9579 ft 334 kts 58°
2026-05-07 01:38 42.00240 -70.78141 9371 ft 332 kts 58°
2026-05-07 01:38 42.01525 -70.75579 9148 ft 329 kts 47°
2026-05-07 01:38 42.03033 -70.73320 8949 ft 317 kts 44°
2026-05-07 01:39 42.04475 -70.71161 8772 ft 307 kts 45°
2026-05-07 01:39 42.05886 -70.69044 8593 ft 302 kts 45°
2026-05-07 01:39 42.07283 -70.66950 8413 ft 300 kts 45°
2026-05-07 01:39 42.08677 -70.64864 8228 ft 299 kts 45°
2026-05-07 01:40 42.10180 -70.62973 8042 ft 293 kts 31°
2026-05-07 01:40 42.11911 -70.61599 7791 ft 285 kts 17°
2026-05-07 01:40 42.13766 -70.60786 7542 ft 277 kts
2026-05-07 01:40 42.15648 -70.60280 7300 ft 276 kts
2026-05-07 01:41 42.17522 -70.59765 7056 ft 275 kts
2026-05-07 01:41 42.19387 -70.59242 6817 ft 273 kts
2026-05-07 01:41 42.21246 -70.58716 6574 ft 272 kts
2026-05-07 01:41 42.23096 -70.58197 6341 ft 271 kts
2026-05-07 01:42 42.24936 -70.57682 6091 ft 269 kts
2026-05-07 01:42 42.26767 -70.57170 5843 ft 268 kts
2026-05-07 01:42 42.28591 -70.56662 5587 ft 267 kts
2026-05-07 01:42 42.29793 -70.56363 5415 ft 263 kts 359°
2026-05-07 01:43 42.31581 -70.56416 5172 ft 253 kts 343°
2026-05-07 01:43 42.33231 -70.57095 5027 ft 245 kts 327°
2026-05-07 01:43 42.34647 -70.58294 5009 ft 238 kts 313°
2026-05-07 01:43 42.35840 -70.59808 5007 ft 235 kts 309°
2026-05-07 01:44 42.37011 -70.61340 5007 ft 235 kts 309°
2026-05-07 01:44 42.38183 -70.62875 5004 ft 235 kts 309°
2026-05-07 01:44 42.39354 -70.64412 5005 ft 234 kts 309°
2026-05-07 01:44 42.40524 -70.65950 4997 ft 235 kts 309°
2026-05-07 01:45 42.41695 -70.67494 4997 ft 236 kts 310°
2026-05-07 01:45 42.42868 -70.69042 4995 ft 236 kts 309°
2026-05-07 01:45 42.44043 -70.70590 4998 ft 236 kts 310°
2026-05-07 01:45 42.45218 -70.72138 4997 ft 235 kts 310°
2026-05-07 01:46 42.46364 -70.73646 4996 ft 226 kts 310°
2026-05-07 01:46 42.47489 -70.75128 4996 ft 225 kts 310°
2026-05-07 01:46 42.48612 -70.76608 4999 ft 225 kts 310°
2026-05-07 01:46 42.49733 -70.78089 4994 ft 225 kts 310°
2026-05-07 01:47 42.50855 -70.79573 4986 ft 226 kts 310°
2026-05-07 01:47 42.52103 -70.80873 4859 ft 232 kts 329°
2026-05-07 01:47 42.53703 -70.81338 4731 ft 243 kts 356°
2026-05-07 01:47 42.55351 -70.80802 4615 ft 250 kts 15°
2026-05-07 01:48 42.56957 -70.80016 4484 ft 241 kts 14°
2026-05-07 01:48 42.58512 -70.79248 4356 ft 238 kts 15°
2026-05-07 01:48 42.60075 -70.78469 4228 ft 240 kts 14°
2026-05-07 01:48 42.61637 -70.77680 4116 ft 239 kts 15°
2026-05-07 01:49 42.63193 -70.76888 4006 ft 239 kts 15°
2026-05-07 01:49 42.64751 -70.76107 3993 ft 237 kts 10°
2026-05-07 01:49 42.66331 -70.76035 3993 ft 223 kts 337°
2026-05-07 01:49 42.67586 -70.77089 3993 ft 209 kts 303°
2026-05-07 01:50 42.68258 -70.78792 3996 ft 202 kts 288°
2026-05-07 01:50 42.68650 -70.80531 3983 ft 183 kts 269°
2026-05-07 01:50 42.68388 -70.82167 3996 ft 177 kts 249°
2026-05-07 01:50 42.67907 -70.83651 4021 ft 165 kts 246°
2026-05-07 01:51 42.67356 -70.84986 4006 ft 161 kts 233°
2026-05-07 01:51 42.66461 -70.85917 3993 ft 166 kts 210°
2026-05-07 01:51 42.65370 -70.86463 3991 ft 168 kts 206°
2026-05-07 01:51 42.64268 -70.87000 3993 ft 168 kts 206°
2026-05-07 01:52 42.63165 -70.87538 3997 ft 168 kts 206°
2026-05-07 01:52 42.62072 -70.88071 3997 ft 166 kts 206°
2026-05-07 01:52 42.60977 -70.88606 3996 ft 168 kts 206°
2026-05-07 01:52 42.59877 -70.89143 3998 ft 168 kts 206°
2026-05-07 01:53 42.58777 -70.89679 3994 ft 168 kts 206°
2026-05-07 01:53 42.57672 -70.90218 3994 ft 169 kts 207°
2026-05-07 01:53 42.56560 -70.90760 3928 ft 170 kts 206°
2026-05-07 01:53 42.55469 -70.91291 3760 ft 168 kts 207°
2026-05-07 01:54 42.54377 -70.91823 3556 ft 167 kts 207°
2026-05-07 01:54 42.53273 -70.92361 3340 ft 166 kts 207°
2026-05-07 01:54 42.52193 -70.92886 3127 ft 164 kts 207°
2026-05-07 01:54 42.51136 -70.93401 2909 ft 163 kts 206°
2026-05-07 01:55 42.50067 -70.93920 2695 ft 162 kts 206°
2026-05-07 01:55 42.49012 -70.94433 2485 ft 160 kts 208°
2026-05-07 01:55 42.47965 -70.94942 2259 ft 159 kts 208°
2026-05-07 01:55 42.46937 -70.95441 2063 ft 156 kts 207°
2026-05-07 01:56 42.45927 -70.95932 1853 ft 153 kts 207°
2026-05-07 01:56 42.44925 -70.96419 1652 ft 153 kts 207°
2026-05-07 01:56 42.43923 -70.96905 1446 ft 152 kts 207°
2026-05-07 01:56 42.42976 -70.97362 1235 ft 138 kts 206°
2026-05-07 01:57 42.42090 -70.97792 1057 ft 133 kts 205°
2026-05-07 01:57 42.41223 -70.98214 867 ft 133 kts 204°
2026-05-07 01:57 42.40362 -70.98632 691 ft 130 kts 202°
2026-05-07 01:57 42.39510 -70.99042 527 ft 130 kts 201°
2026-05-07 01:58 42.38661 -70.99459 356 ft 131 kts 202°
2026-05-07 01:58 42.37813 -70.99873 149 ft 129 kts 200°
2026-05-07 01:58 42.36981 -71.00282 27 ft 121 kts 199°
2026-05-07 01:58 42.36404 -71.00558 25 ft 60 kts 200°
2026-05-07 01:59 42.36181 -71.00670 27 ft 23 kts 212°
2026-05-07 01:59 42.36152 -71.00826 30 ft 18 kts 290°
2026-05-07 01:59 42.36208 -71.00991 29 ft 20 kts 294°
2026-05-07 01:59 42.36264 -71.01157 29 ft 13 kts 297°
2026-05-07 02:00 42.36312 -71.01263 29 ft 14 kts 302°
2026-05-07 02:00 42.36336 -71.01316 28 ft 4 kts 302°
2026-05-07 02:00 42.36369 -71.01386 27 ft 12 kts 307°
2026-05-07 02:00 42.36450 -71.01376 29 ft 14 kts 20°
2026-05-07 02:01 42.36544 -71.01318 27 ft 16 kts 26°
2026-05-07 02:01 42.36656 -71.01264 28 ft 18 kts 14°
2026-05-07 02:01 42.36756 -71.01245 29 ft 13 kts 346°
2026-05-07 02:01 42.36823 -71.01314 26 ft 13 kts 315°
2026-05-07 02:02 42.36891 -71.01405 27 ft 11 kts 315°
2026-05-07 02:02 42.36942 -71.01474 29 ft 12 kts 314°
2026-05-07 02:02 42.36991 -71.01554 27 ft 10 kts 291°
2026-05-07 02:02 42.36944 -71.01623 27 ft 12 kts 212°
2026-05-07 02:03 42.36871 -71.01686 30 ft 7 kts 209°
2026-05-07 02:03 42.36826 -71.01661 26 ft 9 kts 131°
2026-05-07 02:03 42.36782 -71.01622 30 ft 5 kts 152°
2026-05-07 02:03 42.36768 -71.01612 27 ft 0 kts 152°